Flag for Colombia Weather past 2 weeks in Cartagena, Colombia

Now
82 °F

Passing clouds.


Feels Like: 91 °F
Forecast: 78 / 87 °F
Wind: 2 mph from North

Location: Cartagena / Rafael Nunez

Current Time: Apr 21, 2015 at 12:21:17 AM

Latest Report: Apr 21, 2015 at 12:00 AM


Visibility: N/A

Pressure: 29.82 "Hg

Humidity: 84%

Dew point: 77 °F

Location of CartagenaLocation

Historic Weather in Cartagena — Graph

°F

Cartagena temperature yesterday

Maximum temperature yesterday: 88 °F (at 2:00 PM)
Minimum temperature yesterday: 79 °F (at 1:00 AM)
Average temperature yesterday: 83 °F

Past Weeks' High & Low Weather Summary

 TemperatureHumidityPressure
High91 °F (Apr 13, 11:00 AM)100% (Apr 19, 2:00 PM)29.97 "Hg (Apr 19, 2:00 PM)
Low77 °F (Apr 6, 6:00 AM)62% (Apr 6, 3:00 PM)29.69 "Hg (Apr 6, 4:00 PM)
Average83 °F81%29.79 "Hg
* Reported Apr 5 11:00 PM — Apr 20 11:00 PM, Cartagena, Weather by CustomWeather, © 2015

Note: Actual official high and low records may vary slightly from our data, if they occured in-between our weather recording intervals... More about our weather records

Advertising

Cartagena weather history for previous 24 hours

 ConditionsComfort  
Time TempWeatherWind HumidityBarometerVisibility
11:00 PM
Mon, Apr 20
82 °FPassing clouds.8 mph84%29.83 "HgN/A
10:00 PM82 °FPassing clouds.7 mph84%29.82 "HgN/A
9:00 PM82 °FPassing clouds.12 mph84%29.79 "HgN/A
8:00 PM82 °FPassing clouds.8 mph84%29.77 "HgN/A
7:00 PM82 °FPassing clouds.10 mph84%29.77 "HgN/A
6:00 PM82 °FScattered clouds.17 mph79%29.75 "HgN/A
5:00 PM84 °FPassing clouds.17 mph79%29.74 "HgN/A
4:00 PM84 °FPassing clouds.20 mph84%29.74 "HgN/A
3:00 PM86 °FScattered clouds.14 mph75%29.76 "HgN/A
2:00 PM88 °FScattered clouds.15 mph75%29.77 "HgN/A
1:00 PM86 °FScattered clouds.18 mph75%29.84 "HgN/A
12:00 PM86 °FPartly sunny.13 mph75%29.83 "HgN/A
11:00 AM86 °FScattered clouds.13 mph75%29.84 "HgN/A
10:00 AM86 °FPartly sunny.3 mph66%29.86 "HgN/A
9:00 AM84 °FSunny.5 mph70%29.86 "Hg10 mi
8:00 AM82 °FSunny.3 mph74%29.86 "Hg10 mi
7:00 AM79 °FSunny.3 mph84%29.83 "Hg10 mi
6:00 AM79 °FSunny.3 mph84%29.81 "Hg10 mi
5:00 AM79 °FClear.3 mph84%29.79 "Hg10 mi
4:00 AM79 °FClear.5 mph84%29.78 "Hg10 mi
3:00 AM81 °FClear.6 mph79%29.77 "Hg10 mi
2:00 AM81 °FClear.7 mph74%29.78 "Hg10 mi
1:00 AM79 °FClear.5 mph84%29.80 "Hg10 mi
Weather by CustomWeather, © 2015

See weather overviewHow to use our weather pages